• In Netherlands
  • List of Countries
  • For 7 days
  • Water Temperature
  • Satellite Maps
  • Weather Map
  • Weather Widgets
  • user-avatar
    Login

    Hourly Weather Asadabad

    Today, 26 May, Saturday

    Time Temperature Precipitation Wind Pressure Humidity
    00:00 +22°C° 0.4 mm 3 mps 657 mmHg 38%
    01:00 +22°C° 0.4 mm 3 mps 657 mmHg 38%
    02:00 +21°C° 0.4 mm 3 mps 657 mmHg 38%
    03:00 +21°C° 0.1 mm 3 mps 657 mmHg 39%
    04:00 +20°C° 0.1 mm 3 mps 656 mmHg 39%
    05:00 +20°C° 0.1 mm 3 mps 656 mmHg 39%
    06:00 +21°C° 0 mm 3 mps 656 mmHg 35%
    07:00 +24°C° 0 mm 3 mps 657 mmHg 32%
    08:00 +26°C° 0 mm 2 mps 657 mmHg 28%
    09:00 +27°C° 0 mm 2 mps 657 mmHg 27%
    10:00 +28°C° 0 mm 2 mps 658 mmHg 25%
    11:00 +29°C° 0 mm 2 mps 658 mmHg 24%
    12:00 +30°C° 0.1 mm 2 mps 658 mmHg 23%
    13:00 +31°C° 0.1 mm 2 mps 658 mmHg 23%
    14:00 +31°C° 0.1 mm 3 mps 657 mmHg 22%
    15:00 +31°C° 0.1 mm 3 mps 657 mmHg 22%
    16:00 +31°C° 0.1 mm 2 mps 657 mmHg 22%
    17:00 +31°C° 0.1 mm 2 mps 657 mmHg 22%
    18:00 +29°C° 0.1 mm 2 mps 657 mmHg 26%
    19:00 +27°C° 0.1 mm 2 mps 657 mmHg 29%
    20:00 +26°C° 0.1 mm 2 mps 657 mmHg 33%
    21:00 +25°C° 0 mm 3 mps 657 mmHg 34%
    22:00 +24°C° 0 mm 3 mps 657 mmHg 35%
    23:00 +24°C° 0 mm 3 mps 657 mmHg 36%

    Tomorrow, 27 May, Sunday

    Time Temperature Precipitation Wind Pressure Humidity
    00:00 +22°C° 0 mm 3 mps 656 mmHg 36%
    01:00 +22°C° 0 mm 3 mps 656 mmHg 36%
    02:00 +21°C° 0 mm 3 mps 656 mmHg 36%
    03:00 +21°C° 0 mm 3 mps 656 mmHg 36%
    04:00 +21°C° 0 mm 3 mps 656 mmHg 36%
    05:00 +20°C° 0 mm 3 mps 655 mmHg 36%
    06:00 +22°C° 0 mm 3 mps 656 mmHg 33%
    07:00 +25°C° 0 mm 2 mps 657 mmHg 30%
    08:00 +27°C° 0 mm 2 mps 657 mmHg 28%
    09:00 +28°C° 0 mm 2 mps 658 mmHg 26%
    10:00 +29°C° 0 mm 2 mps 658 mmHg 24%
    11:00 +30°C° 0 mm 2 mps 658 mmHg 23%
    12:00 +31°C° 0.1 mm 2 mps 658 mmHg 22%
    13:00 +32°C° 0.1 mm 2 mps 658 mmHg 22%
    14:00 +32°C° 0.1 mm 2 mps 658 mmHg 21%
    15:00 +32°C° 0.1 mm 2 mps 658 mmHg 22%
    16:00 +32°C° 0.1 mm 2 mps 657 mmHg 22%
    17:00 +32°C° 0.1 mm 2 mps 657 mmHg 23%
    18:00 +30°C° 0 mm 2 mps 657 mmHg 26%
    19:00 +29°C° 0 mm 2 mps 657 mmHg 29%
    20:00 +27°C° 0 mm 2 mps 657 mmHg 32%
    21:00 +26°C° 0 mm 2 mps 657 mmHg 32%
    22:00 +26°C° 0 mm 3 mps 657 mmHg 33%
    23:00 +25°C° 0 mm 3 mps 657 mmHg 33%

    Day after tomorrow, 28 May, Monday

    Time Temperature Precipitation Wind Pressure Humidity
    00:00 +24°C° 0 mm 3 mps 657 mmHg 33%
    01:00 +23°C° 0 mm 4 mps 657 mmHg 34%
    02:00 +22°C° 0 mm 4 mps 656 mmHg 34%
    03:00 +21°C° 0 mm 4 mps 656 mmHg 35%
    04:00 +21°C° 0 mm 4 mps 656 mmHg 35%
    05:00 +20°C° 0 mm 4 mps 656 mmHg 35%
    06:00 +22°C° 0 mm 4 mps 657 mmHg 32%
    07:00 +25°C° 0 mm 4 mps 657 mmHg 29%
    08:00 +27°C° 0 mm 4 mps 658 mmHg 25%
    09:00 +29°C° 0 mm 3 mps 658 mmHg 23%
    10:00 +30°C° 0 mm 3 mps 658 mmHg 21%
    11:00 +31°C° 0 mm 2 mps 658 mmHg 19%
    12:00 +33°C° 0 mm 3 mps 658 mmHg 18%
    13:00 +33°C° 0 mm 3 mps 657 mmHg 18%
    14:00 +34°C° 0 mm 3 mps 657 mmHg 17%
    15:00 +34°C° 0.1 mm 3 mps 656 mmHg 18%
    16:00 +33°C° 0.1 mm 3 mps 656 mmHg 18%
    17:00 +33°C° 0.1 mm 3 mps 656 mmHg 19%
    18:00 +30°C° 0 mm 3 mps 656 mmHg 22%
    19:00 +29°C° 0 mm 3 mps 656 mmHg 25%
    20:00 +27°C° 0 mm 4 mps 656 mmHg 28%
    21:00 +26°C° 0 mm 4 mps 656 mmHg 30%
    22:00 +25°C° 0 mm 4 mps 656 mmHg 31%
    23:00 +23°C° 0 mm 4 mps 655 mmHg 32%

    29 May, Tuesday

    Time Temperature Precipitation Wind Pressure Humidity
    00:00 +22°C° 0 mm 4 mps 655 mmHg 33%
    01:00 +22°C° 0 mm 4 mps 655 mmHg 33%
    02:00 +21°C° 0 mm 4 mps 654 mmHg 33%
    03:00 +21°C° 0 mm 4 mps 654 mmHg 33%
    04:00 +20°C° 0 mm 4 mps 654 mmHg 33%
    05:00 +20°C° 0 mm 4 mps 654 mmHg 33%
    06:00 +22°C° 0 mm 3 mps 654 mmHg 30%
    07:00 +25°C° 0 mm 3 mps 655 mmHg 28%
    08:00 +27°C° 0 mm 3 mps 655 mmHg 25%
    09:00 +28°C° 0 mm 2 mps 656 mmHg 24%
    10:00 +29°C° 0 mm 2 mps 656 mmHg 22%
    11:00 +31°C° 0 mm 2 mps 656 mmHg 21%
    12:00 +31°C° 0.1 mm 2 mps 656 mmHg 20%
    13:00 +32°C° 0.1 mm 2 mps 655 mmHg 19%
    14:00 +34°C° 0.1 mm 2 mps 655 mmHg 18%
    15:00 +34°C° 0.1 mm 2 mps 655 mmHg 18%
    16:00 +34°C° 0.1 mm 2 mps 655 mmHg 18%
    17:00 +34°C° 0.1 mm 2 mps 655 mmHg 18%
    18:00 +31°C° 0 mm 2 mps 655 mmHg 21%
    19:00 +29°C° 0 mm 1 mps 655 mmHg 24%
    20:00 +27°C° 0 mm 1 mps 655 mmHg 26%
    21:00 +26°C° 0 mm 2 mps 655 mmHg 26%
    22:00 +26°C° 0 mm 2 mps 655 mmHg 26%
    23:00 +25°C° 0 mm 3 mps 655 mmHg 26%

    30 May, Wednesday

    Time Temperature Precipitation Wind Pressure Humidity
    00:00 +25°C° 0 mm 3 mps 655 mmHg 26%
    01:00 +24°C° 0 mm 3 mps 655 mmHg 27%
    02:00 +22°C° 0 mm 3 mps 654 mmHg 27%
    03:00 +22°C° 0 mm 3 mps 654 mmHg 27%
    04:00 +22°C° 0 mm 3 mps 654 mmHg 28%
    05:00 +21°C° 0 mm 3 mps 654 mmHg 28%
    06:00 +24°C° 0 mm 3 mps 655 mmHg 26%
    07:00 +26°C° 0 mm 2 mps 655 mmHg 23%
    08:00 +29°C° 0 mm 2 mps 656 mmHg 21%
    09:00 +30°C° 0 mm 2 mps 656 mmHg 20%
    10:00 +31°C° 0 mm 2 mps 657 mmHg 18%
    11:00 +32°C° 0 mm 2 mps 657 mmHg 16%
    12:00 +34°C° 0 mm 2 mps 657 mmHg 16%
    13:00 +35°C° 0 mm 3 mps 657 mmHg 16%
    14:00 +35°C° 0 mm 3 mps 657 mmHg 15%
    15:00 +35°C° 0 mm 3 mps 656 mmHg 15%
    16:00 +35°C° 0 mm 3 mps 656 mmHg 15%
    17:00 +35°C° 0 mm 3 mps 656 mmHg 14%
    18:00 +32°C° 0 mm 2 mps 656 mmHg 18%
    19:00 +30°C° 0 mm 1 mps 656 mmHg 21%
    20:00 +28°C° 0 mm 1 mps 656 mmHg 24%
    21:00 +27°C° 0 mm 2 mps 656 mmHg 24%
    22:00 +27°C° 0 mm 2 mps 656 mmHg 24%
    23:00 +26°C° 0 mm 3 mps 657 mmHg 24%

    31 May, Thursday

    Time Temperature Precipitation Wind Pressure Humidity
    00:00 +26°C° 0 mm 3 mps 656 mmHg 26%
    01:00 +25°C° 0 mm 3 mps 656 mmHg 28%
    02:00 +24°C° 0 mm 3 mps 655 mmHg 29%
    03:00 +24°C° 0 mm 3 mps 655 mmHg 30%
    04:00 +24°C° 0 mm 3 mps 655 mmHg 31%
    05:00 +22°C° 0 mm 3 mps 655 mmHg 32%
    06:00 +25°C° 0 mm 3 mps 656 mmHg 29%
    07:00 +28°C° 0 mm 2 mps 657 mmHg 26%
    08:00 +30°C° 0 mm 2 mps 657 mmHg 23%
    09:00 +31°C° 0 mm 2 mps 658 mmHg 22%
    10:00 +32°C° 0 mm 2 mps 658 mmHg 20%
    11:00 +34°C° 0 mm 2 mps 658 mmHg 18%
    12:00 +35°C° 0 mm 3 mps 658 mmHg 17%
    13:00 +36°C° 0 mm 3 mps 658 mmHg 16%
    14:00 +36°C° 0 mm 3 mps 658 mmHg 15%
    15:00 +36°C° 0.1 mm 3 mps 658 mmHg 15%
    16:00 +36°C° 0.1 mm 3 mps 658 mmHg 16%
    17:00 +36°C° 0.1 mm 3 mps 658 mmHg 16%
    18:00 +34°C° 0 mm 3 mps 658 mmHg 20%
    19:00 +30°C° 0 mm 2 mps 657 mmHg 24%
    20:00 +28°C° 0 mm 2 mps 657 mmHg 28%
    21:00 +28°C° 0 mm 2 mps 657 mmHg 29%
    22:00 +27°C° 0 mm 3 mps 657 mmHg 29%
    23:00 +26°C° 0 mm 3 mps 657 mmHg 30%
    Show more